EW3204 Weather Reports


time (UTC)temp
F
wind
direction
speed
knots
gust
knots
rain 1hr
in
rain 24hr
in
rain mn
in
humidity
%
barometer
mb
20260902204559 98 286 8.7 0.0 0.00 0.00 0.00 6 1008.0
20260902203157 97 284 9.6 0.0 0.00 0.00 0.00 5 1008.2
20260902201555 97 356 3.5 0.0 0.00 0.00 0.00 5 1008.4
20260902200051 96 337 3.5 0.0 0.00 0.00 0.00 5 1008.7
20260902194556 95 202 3.5 0.0 0.00 0.00 0.00 5 1008.8
20260902193048 95 296 2.6 0.0 0.00 0.00 0.00 5 1009.2
20260902191545 94 49 2.6 0.0 0.00 0.00 0.00 5 1009.5
20260902190042 93 41 4.3 0.0 0.00 0.00 0.00 6 1009.7
20260902184552 93 106 2.6 0.0 0.00 0.00 0.00 6 1009.9
20260902183040 92 78 3.5 0.0 0.00 0.00 0.00 6 1010.1
20260902181542 92 59 2.6 0.0 0.00 0.00 0.00 7 1010.3
20260902180045 91 78 3.5 0.0 0.00 0.00 0.00 7 1010.3
20260902174533 90 101 1.7 0.0 0.00 0.00 0.00 8 1010.5
20260902173031 90 135 3.5 0.0 0.00 0.00 0.00 8 1010.4
20260902171530 89 39 2.6 0.0 0.00 0.00 0.00 9 1010.4
20260902170028 89 103 1.7 0.0 0.00 0.00 0.00 9 1010.4
20260902164529 88 138 3.5 0.0 0.00 0.00 0.00 9 1010.4
20260902163025 88 67 1.7 0.0 0.00 0.00 0.00 9 1010.3
20260902161522 87 47 2.6 0.0 0.00 0.00 0.00 13 1010.3
20260902160018 86 35 1.7 0.0 0.00 0.00 0.00 14 1010.4
20260902154525 85 14 1.7 0.0 0.00 0.00 0.00 15 1010.4
20260902153012 84 27 1.7 0.0 0.00 0.00 0.00 15 1010.3
20260902151510 83 73 1.7 0.0 0.00 0.00 0.00 16 1010.3
20260902150010 82 73 1.7 0.0 0.00 0.00 0.00 16 1010.3
20260902144525 81 73 0.9 0.0 0.00 0.00 0.00 17 1010.3
20260902143013 78 197 2.6 0.0 0.00 0.00 0.00 18 1010.3
20260902141515 77 197 3.5 0.0 0.00 0.00 0.00 20 1010.2
20260902140010 75 260 4.3 0.0 0.00 0.00 0.00 21 1010.0
20260902134504 75 202 4.3 0.0 0.00 0.00 0.00 21 1009.8
20260902133002 74 197 5.2 0.0 0.00 0.00 0.00 22 1009.6
20260902131600 73 208 3.5 0.0 0.00 0.00 0.00 23 1009.6
20260902124600 75 218 3.5 0.0 0.00 0.00 0.00 21 1009.4
20260902123100 75 224 4.3 0.0 0.00 0.00 0.00 21 1009.3
20260902123043 75 211 4.3 0.0 0.00 0.00 0.00 21 1009.3
20260902121607 75 224 2.6 0.0 0.00 0.00 0.00 21 1009.2
20260902120055 74 277 2.6 0.0 0.00 0.00 0.00 20 1009.3
20260902114552 75 277 3.5 0.0 0.00 0.00 0.00 19 1009.2
20260902113058 74 277 2.6 0.0 0.00 0.00 0.00 20 1009.2
20260902111551 75 221 2.6 0.0 0.00 0.00 0.00 19 1009.1
20260902110051 75 300 1.7 0.0 0.00 0.00 0.00 19 1009.1
20260902104552 75 300 1.7 0.0 0.00 0.00 0.00 19 1009.0
20260902103043 76 253 2.6 0.0 0.00 0.00 0.00 18 1009.1
20260902101541 76 253 2.6 0.0 0.00 0.00 0.00 17 1009.2
20260902100051 75 253 2.6 0.0 0.00 0.00 0.00 17 1009.2
20260902094604 76 355 1.7 0.0 0.00 0.00 0.00 16 1009.1
20260902093033 78 111 1.7 0.0 0.00 0.00 0.00 15 1009.0
20260902091534 80 111 3.5 0.0 0.00 0.00 0.00 15 1009.1
20260902090029 80 113 4.3 0.0 0.00 0.00 0.00 15 1009.1
20260902084528 79 140 3.5 0.0 0.00 0.00 0.00 16 1009.1
20260902083128 79 177 2.6 0.0 0.00 0.00 0.00 15 1009.2
20260902081523 81 263 3.5 0.0 0.00 0.00 0.00 15 1009.2
20260902080020 82 258 3.5 0.0 0.00 0.00 0.00 14 1009.3
20260902074519 82 211 1.7 0.0 0.00 0.00 0.00 14 1009.3
20260902073018 82 241 3.5 0.0 0.00 0.00 0.00 13 1009.3
20260902071515 83 200 5.2 0.0 0.00 0.00 0.00 13 1009.1
20260902070013 83 293 7.0 0.0 0.00 0.00 0.00 13 1009.2
20260902064512 83 300 4.3 0.0 0.00 0.00 0.00 13 1009.2
20260902063011 83 330 6.1 0.0 0.00 0.00 0.00 13 1009.1
20260902061511 83 303 6.1 0.0 0.00 0.00 0.00 13 1008.9
20260902060010 84 249 8.7 0.0 0.00 0.00 0.00 13 1008.9
20260902054509 84 235 12.2 0.0 0.00 0.00 0.00 14 1008.6
20260902053010 84 246 12.2 0.0 0.00 0.00 0.00 14 1008.9
20260902051512 84 248 13.0 0.0 0.00 0.00 0.00 15 1008.9
20260902050008 84 267 12.2 0.0 0.00 0.00 0.00 15 1009.0
20260902044507 84 275 12.2 0.0 0.00 0.00 0.00 16 1008.9
20260902043007 84 254 13.0 0.0 0.00 0.00 0.00 17 1008.8
20260902041506 84 260 11.3 0.0 0.00 0.00 0.00 18 1008.8
20260902040003 84 267 11.3 0.0 0.00 0.00 0.00 17 1008.6
20260902034502 85 264 12.2 0.0 0.00 0.00 0.00 18 1008.5
20260902033002 85 292 11.3 0.0 0.00 0.00 0.00 20 1008.3
20260902031501 85 285 10.4 0.0 0.00 0.00 0.00 21 1008.1
20260902030106 85 291 10.4 0.0 0.00 0.00 0.00 22 1007.8
20260902024601 86 258 10.4 0.0 0.00 0.00 0.00 22 1007.6
20260902021559 88 298 10.4 0.0 0.00 0.00 0.00 24 1007.1
20260902020104 88 304 13.0 0.0 0.00 0.00 0.00 24 1007.0
20260902014558 89 265 13.9 0.0 0.00 0.00 0.00 24 1006.8
20260902013058 91 308 13.0 0.0 0.00 0.00 0.00 22 1006.6
20260902011557 92 296 13.0 0.0 0.00 0.00 0.00 20 1006.6
20260902010106 93 321 13.0 0.0 0.00 0.00 0.00 19 1006.4
20260902004556 95 297 13.0 0.0 0.00 0.00 0.00 16 1006.5
20260902003055 96 314 11.3 0.0 0.00 0.00 0.00 15 1006.4
20260902001605 96 304 10.4 0.0 0.00 0.00 0.00 18 1006.4
20260902000054 97 254 11.3 0.0 0.00 0.00 0.00 15 1006.4
20260901234553 98 266 11.3 0.0 0.00 0.00 0.00 14 1006.5
20260901233056 99 298 7.0 0.0 0.00 0.00 0.00 13 1006.5
20260901231551 100 244 7.0 0.0 0.00 0.00 0.00 11 1006.6
20260901231514 99 217 7.0 0.0 0.00 0.00 0.00 12 1006.6
20260901230052 100 215 12.2 0.0 0.00 0.00 0.00 12 1006.5
20260901224556 101 216 6.1 0.0 0.00 0.00 0.00 12 1006.3
20260901223051 100 53 4.3 0.0 0.00 0.00 0.00 13 1006.4
20260901221646 100 38 5.2 0.0 0.00 0.00 0.00 13 1006.5
20260901220043 98 157 3.5 0.0 0.00 0.00 0.00 14 1006.6
20260901214555 99 236 2.6 0.0 0.00 0.00 0.00 14 1007.0
20260901213039 99 356 4.3 0.0 0.00 0.00 0.00 13 1007.2
20260901211538 99 225 2.6 0.0 0.00 0.00 0.00 13 1007.3
20260901210037 99 358 3.5 0.0 0.00 0.00 0.00 13 1007.7